GEFSGL_500_meanwind_360.txt.gz
Wind_Speed
45 45 46 47 48 49 50 50 51 51 52 52 53 53 53 53 53 52 52 53 53 53 53 54 54 53 54 54 54 55 55 55 55 54 54 54 55 54 54 55 55 55 55
45 46 46 47 48 49 50 51 51 51 52 52 52 52 53 53 52 52 52 52 53 53 53 53 54 54 54 54 54 55 55 54 55 54 54 55 56 56 56 56 57 57 57
45 46 46 47 48 48 49 50 51 52 52 53 53 53 54 54 54 53 53 53 53 54 54 55 55 55 55 55 54 54 54 54 55 56 55 56 56 57 57 57 58 58 59
44 45 46 46 47 48 49 50 51 51 52 53 54 54 55 55 56 55 55 55 55 55 55 56 56 56 55 54 54 54 55 55 56 56 56 56 57 58 58 58 58 59 59
44 45 45 46 46 47 48 49 50 51 52 53 54 54 54 55 56 56 57 57 57 57 57 56 56 55 54 54 54 55 55 55 56 56 56 57 58 58 58 57 58 58 59
43 44 44 44 46 46 47 48 49 50 51 52 53 53 54 54 54 55 56 57 57 57 57 56 55 55 55 55 54 55 56 56 56 56 57 57 56 57 57 57 58 59 59
42 43 44 44 45 45 46 47 48 49 50 51 52 52 52 53 53 54 54 55 55 55 54 54 53 53 53 53 54 55 55 56 57 57 56 55 55 55 56 57 57 58 58
41 43 44 45 45 45 46 47 48 49 50 51 51 51 52 52 53 53 52 53 53 53 52 52 53 53 53 53 53 54 55 55 55 55 55 54 54 55 55 56 57 57 57
41 42 43 45 45 46 47 47 48 49 49 50 51 51 52 52 53 53 53 52 52 52 52 52 53 53 52 52 53 53 54 54 54 55 55 54 54 55 55 55 56 56 56
40 41 41 42 43 44 45 46 47 48 49 49 50 50 50 50 51 51 51 51 51 51 52 52 52 52 52 52 52 52 53 53 53 53 54 54 54 54 55 55 55 55 56
39 40 41 41 42 43 43 44 45 46 47 48 49 49 49 49 49 49 50 50 50 50 50 51 51 51 51 51 51 51 51 51 51 51 51 51 51 51 52 53 53 54 54
38 39 39 40 40 41 41 41 43 44 45 45 46 47 48 48 48 48 49 50 50 50 50 50 50 50 51 50 50 50 50 50 49 49 49 49 49 49 49 50 51 52 52
35 36 37 38 38 38 39 39 40 41 42 43 44 45 46 47 48 48 49 50 50 50 50 50 50 50 50 49 49 49 49 49 49 48 47 48 48 48 48 49 49 50 50
34 34 35 35 36 37 37 38 39 40 41 42 42 43 44 45 46 47 48 49 49 49 49 49 49 49 48 48 48 48 47 47 47 47 46 47 47 47 47 47 48 48 48
33 33 34 34 35 35 36 36 37 38 39 40 40 42 42 43 45 46 47 47 47 48 48 48 48 48 47 47 47 47 47 47 47 46 46 46 46 46 46 46 46 46 46
33 34 34 34 35 35 35 35 36 37 37 38 38 39 40 42 43 44 45 46 46 46 46 46 46 46 46 46 46 46 46 46 46 46 46 46 46 45 45 45 45 45 45
34 34 34 34 35 35 35 35 36 36 37 38 38 39 39 40 41 42 43 43 44 45 45 45 45 45 45 45 45 45 44 45 45 45 45 44 44 44 44 44 44 44 45
35 35 35 35 35 35 35 36 36 36 37 37 38 39 39 39 39 39 40 41 41 42 43 43 43 44 44 44 44 44 44 44 44 44 44 44 44 44 44 44 44 44 44
34 35 35 35 36 36 36 36 36 36 37 37 37 37 37 37 37 36 37 38 39 40 40 41 41 42 42 42 43 43 43 43 43 44 44 44 43 43 43 42 42 43 43
33 34 34 35 35 35 36 36 36 36 36 36 35 35 35 34 34 34 34 35 36 36 37 37 38 38 39 40 40 40 40 41 41 41 42 42 41 41 41 41 41 42 42
33 33 33 34 34 34 35 35 34 34 34 34 33 33 32 32 32 32 32 33 33 34 34 35 36 36 37 37 38 38 38 39 39 39 40 41 41 41 41 41 41 41 41
32 32 32 33 33 33 33 33 32 32 32 32 32 31 31 31 31 31 31 32 32 33 33 33 34 35 35 36 36 37 37 38 39 39 39 39 40 40 40 39 39 39 39
32 32 32 32 32 32 32 32 32 32 31 31 31 30 31 31 31 31 31 31 31 31 31 31 32 33 33 34 35 35 36 37 37 38 38 38 38 39 38 38 37 37 37
32 32 31 31 32 32 32 32 32 32 31 31 31 30 30 30 31 31 31 31 31 30 30 30 30 31 31 32 33 33 34 35 35 35 36 36 36 35 35 35 35 35 35
32 32 31 32 32 31 31 30 30 30 30 30 30 30 29 29 29 30 30 30 30 30 30 30 30 30 30 31 31 31 32 32 33 33 34 33 33 33 33 33 34 34 34
32 32 32 32 32 31 31 30 30 29 29 29 28 28 28 28 28 28 28 28 28 29 29 29 29 29 29 29 30 30 30 30 31 32 32 32 32 32 32 32 32 32 32

GEFSGL_500_meanwind_366.txt.gz
Wind_Speed
46 47 47 48 50 50 51 52 53 53 53 53 53 53 53 54 53 54 55 55 55 54 54 55 56 56 56 57 57 56 56 55 54 53 53 54 54 54 54 53 53 52 52
45 46 46 47 47 48 49 50 52 53 54 54 54 53 54 54 54 55 55 55 55 55 55 56 56 56 56 56 56 56 56 56 55 54 53 54 54 54 54 54 53 53 52
43 44 44 44 46 47 48 48 49 51 52 53 53 54 54 55 55 54 54 55 55 56 56 57 56 56 56 56 56 56 56 56 56 55 54 55 54 53 54 54 54 54 53
42 43 44 45 45 47 48 48 48 49 49 51 51 53 54 54 54 55 55 55 55 55 56 57 57 57 57 56 56 56 56 56 56 55 55 54 53 53 54 54 54 54 54
42 43 44 45 46 47 47 48 48 49 49 49 50 51 52 53 54 54 55 55 55 55 55 56 56 57 58 57 57 56 56 56 56 56 55 54 54 53 54 54 55 55 55
42 43 43 44 45 46 47 47 47 48 49 49 50 50 51 51 53 54 54 54 55 55 56 56 56 56 56 57 57 57 57 56 55 55 55 54 54 54 55 55 55 56 56
42 43 44 44 45 46 46 46 47 48 48 49 50 50 51 51 52 53 53 54 54 54 54 54 54 55 55 56 56 57 57 57 57 57 56 55 55 55 56 56 56 56 56
42 43 43 44 45 46 46 46 47 48 48 49 50 50 51 52 52 52 52 53 53 53 54 53 53 53 54 55 55 55 56 57 57 57 57 56 56 56 56 56 56 57 57
42 43 43 43 44 45 45 46 47 48 48 49 49 50 51 51 52 52 53 54 54 53 54 53 53 53 54 55 55 55 55 55 55 55 55 55 55 55 55 55 56 57 57
43 43 43 43 44 44 45 45 46 47 48 48 48 49 51 51 52 53 53 54 54 53 53 54 53 53 53 54 54 54 54 54 54 54 54 54 53 53 54 53 53 53 54
42 43 43 44 44 44 44 45 45 46 46 47 48 48 49 49 51 52 53 53 53 53 53 53 53 53 53 53 53 53 53 53 53 52 52 52 52 52 52 52 51 51 50
41 41 42 43 43 43 44 44 44 44 45 45 46 46 47 47 48 49 50 50 51 52 52 52 53 53 52 52 53 53 53 53 52 51 51 50 50 50 50 50 50 50 50
38 38 39 40 41 41 41 42 42 43 43 44 44 44 45 46 47 47 47 48 49 50 50 51 52 52 52 53 53 52 52 52 51 51 51 50 50 50 50 50 50 50 50
37 37 37 38 39 39 39 40 41 41 41 42 42 43 43 44 45 46 47 47 47 48 49 49 50 50 50 51 51 50 51 51 50 50 50 50 50 50 50 50 50 50 49
35 36 36 37 37 36 36 37 38 39 40 40 41 42 42 43 44 45 46 46 47 47 47 47 47 47 48 48 49 49 48 49 49 49 49 49 50 50 50 50 50 50 49
34 34 35 35 35 36 36 36 37 37 39 40 40 41 41 42 43 44 45 45 45 45 45 45 45 45 46 47 47 48 48 48 48 48 49 49 49 49 49 49 50 49 48
34 35 35 35 35 36 36 37 37 37 38 39 39 40 40 41 42 42 43 43 43 43 44 44 44 44 44 45 46 46 47 47 48 48 48 48 49 49 48 48 48 48 47
34 34 35 36 36 37 37 38 38 39 39 39 40 40 40 41 41 41 41 41 41 41 41 41 41 42 42 42 43 44 44 45 46 47 48 48 47 47 47 47 46 46 46
34 34 35 36 36 37 38 39 40 40 40 40 40 41 41 41 41 41 40 40 39 40 40 40 41 41 41 41 41 41 42 43 43 44 45 45 45 45 45 45 45 45 45
34 34 35 35 36 37 38 39 39 40 40 40 40 41 41 40 40 39 39 38 38 38 39 40 40 41 41 41 41 41 41 41 41 42 42 42 42 43 43 43 43 43 43
33 34 35 36 36 37 37 38 38 38 39 38 38 39 39 38 38 37 37 37 37 37 37 37 38 38 38 38 39 39 39 39 39 40 40 40 40 40 40 40 41 41 41
33 34 35 35 36 36 36 36 36 36 36 36 36 36 36 36 36 36 36 35 35 35 35 36 36 36 37 37 37 37 37 37 37 38 38 38 38 38 38 39 39 39 40
34 34 35 35 35 35 35 35 35 35 34 35 35 35 35 35 35 35 35 35 35 34 34 34 34 35 36 36 37 36 36 36 36 36 36 36 36 36 37 37 37 37 37
34 34 34 34 34 34 33 33 33 33 33 33 33 34 34 34 34 34 34 34 34 34 34 34 34 34 34 34 34 35 35 35 36 36 36 36 36 36 36 36 36 36 36
34 34 33 33 32 32 32 32 31 31 31 31 32 32 32 33 33 33 33 33 33 33 33 33 33 32 32 32 31 31 32 33 34 35 35 35 35 35 35 35 35 35 35
33 32 32 32 32 32 31 31 31 31 31 31 31 31 31 32 32 32 32 32 32 31 31 31 31 30 30 30 30 30 30 30 31 32 33 33 33 33 33 33 33 33 33

GEFSGL_500_meanwind_372.txt.gz
Wind_Speed
44 45 45 46 46 47 48 48 49 50 52 53 54 54 54 54 54 54 53 53 53 53 53 53 54 55 55 55 54 54 54 54 54 53 54 54 54 53 53 53 53 54 54
43 44 44 45 45 45 46 47 48 49 51 52 53 52 52 53 54 54 55 54 54 53 53 54 55 55 55 55 55 55 55 55 55 54 54 54 55 55 55 55 55 55 55
42 43 44 44 45 45 45 46 47 48 49 50 51 52 53 53 53 53 53 54 54 54 54 53 54 54 55 55 55 55 55 55 55 55 55 55 55 55 56 56 56 56 56
41 42 43 44 45 45 45 46 47 48 48 49 50 51 53 53 53 52 51 52 52 52 53 54 55 55 56 56 56 56 56 56 56 56 56 55 55 55 56 56 56 56 56
39 41 42 44 45 45 46 47 47 48 48 49 50 51 52 53 54 53 52 52 51 52 53 54 55 55 56 56 56 56 56 56 57 57 57 57 56 56 56 56 56 55 55
39 40 41 42 43 44 45 46 47 48 49 49 50 50 52 52 53 53 53 53 52 52 53 53 53 54 55 56 56 56 56 56 57 57 57 57 57 57 56 56 55 55 55
40 40 41 42 43 44 45 45 46 47 48 49 49 50 50 51 52 53 53 53 53 53 53 52 51 51 52 53 54 56 57 56 56 56 56 56 56 56 56 56 56 55 55
40 41 42 42 43 44 44 45 46 46 47 48 49 50 50 51 51 52 53 53 53 53 53 53 52 51 52 53 54 55 56 56 56 56 56 56 56 56 56 56 55 55 55
40 42 43 43 43 43 44 44 45 46 47 48 49 49 50 50 50 51 53 54 53 54 54 54 54 54 53 54 54 54 55 55 56 56 56 56 56 55 55 55 55 55 55
40 41 42 43 43 44 44 44 45 46 46 47 48 49 49 49 50 51 52 53 53 54 54 54 54 54 53 53 54 54 54 54 54 55 55 55 54 54 54 53 54 54 54
41 41 42 43 43 43 44 44 45 45 46 47 48 49 49 49 50 50 51 51 52 52 52 53 53 53 54 54 54 54 54 54 53 54 54 53 53 53 53 53 53 53 53
41 41 42 42 43 43 43 44 44 45 45 46 47 48 48 48 48 49 49 49 49 50 51 51 52 53 53 54 54 54 54 53 53 52 52 52 52 53 53 53 52 52 52
40 40 40 41 42 42 42 43 44 44 45 45 45 46 46 47 47 47 47 47 48 49 50 51 51 52 53 53 53 53 52 52 53 52 51 50 51 51 51 51 51 51 52
39 39 39 40 40 41 41 42 42 43 43 43 43 43 44 45 46 46 47 47 48 49 50 51 52 52 52 52 52 52 51 50 51 51 51 50 51 51 50 50 50 50 51
39 39 39 40 40 40 40 40 41 41 41 41 41 42 43 44 45 46 46 47 48 49 50 51 51 51 51 51 50 50 50 50 49 49 50 50 50 50 50 50 50 51 51
38 38 38 38 38 38 39 39 39 39 40 40 41 41 42 44 45 46 46 46 47 49 50 50 50 50 50 49 49 48 48 48 48 48 48 49 49 49 49 49 50 50 50
35 35 36 37 37 38 38 38 38 38 39 40 40 41 42 42 43 45 45 47 47 48 48 48 48 48 47 47 47 46 46 47 47 47 46 47 47 47 47 48 49 48 48
34 34 35 35 36 36 36 37 37 37 38 38 39 40 41 42 43 44 45 45 45 45 45 45 45 45 45 45 45 45 45 45 45 45 45 45 45 45 45 46 47 48 47
33 34 34 35 36 36 36 36 37 37 37 38 39 40 41 42 42 43 43 43 43 43 43 43 44 44 44 44 44 44 44 44 44 44 44 44 44 44 44 45 46 47 47
34 34 34 35 36 36 36 36 36 37 37 38 39 39 40 40 41 41 41 41 41 41 40 40 41 41 41 42 42 42 43 43 43 43 43 43 43 44 44 44 45 45 46
34 34 35 35 35 36 36 36 37 37 38 38 38 38 38 38 38 38 38 38 38 38 38 38 38 39 39 40 40 40 41 41 41 42 41 42 42 43 43 43 44 44 43
32 32 33 33 34 34 34 35 36 36 36 36 36 36 36 36 36 36 36 35 35 35 35 36 36 37 37 37 38 38 39 39 40 40 40 40 41 41 41 42 42 42 40
31 31 32 32 32 33 33 34 34 34 34 34 34 34 34 35 34 34 34 34 34 34 34 34 35 35 35 35 35 36 37 37 38 38 39 39 39 39 39 39 40 40 40
31 31 31 31 32 32 32 32 32 32 32 32 32 32 32 32 33 33 33 33 33 33 33 33 33 33 33 34 34 35 35 36 36 36 37 37 37 37 37 37 37 38 38
31 31 31 31 31 31 31 30 30 30 30 30 30 30 30 31 31 31 31 31 32 32 32 32 32 32 32 33 33 33 33 34 34 35 35 35 35 36 36 36 36 36 36
30 30 30 30 30 30 29 29 29 29 29 29 29 29 29 29 30 30 30 31 31 31 31 31 31 31 31 31 31 31 31 32 32 32 33 33 33 34 34 34 34 34 33

GEFSGL_500_meanwind_378.txt.gz
Wind_Speed
43 44 45 46 46 46 47 46 45 45 45 46 46 47 48 49 50 50 51 51 52 52 51 52 53 53 53 52 51 50 51 51 51 51 51 51 51 52 52 52 53 53 54
42 43 44 45 45 45 46 45 44 44 45 45 45 46 46 48 49 49 50 49 51 52 52 52 52 52 53 53 52 51 51 51 51 50 50 50 51 51 52 52 53 54 54
42 42 43 43 44 44 45 45 45 45 45 46 46 46 46 46 47 48 49 49 49 50 51 51 50 51 52 52 52 52 51 50 50 50 50 50 51 52 53 53 54 55 54
41 42 42 43 43 43 44 46 46 46 46 46 46 46 46 46 47 47 48 49 49 49 50 50 50 50 50 50 50 51 52 51 51 50 50 51 51 52 54 54 54 55 54
41 42 42 42 42 43 44 45 45 45 46 46 46 46 47 47 47 48 49 50 49 49 50 50 51 51 51 51 51 51 52 52 52 52 52 52 52 52 53 53 53 54 54
41 42 42 41 42 43 43 43 44 44 45 45 46 45 46 47 47 48 49 50 50 50 50 50 51 52 52 53 52 52 52 52 52 53 53 52 51 52 52 53 53 53 53
41 42 42 42 42 43 44 44 43 43 43 44 45 45 46 47 48 48 49 50 50 50 51 51 51 52 53 53 52 52 52 53 53 53 51 52 52 53 53 53 53 53 52
41 41 42 42 43 44 44 44 43 43 43 43 44 45 46 47 48 48 49 50 50 50 51 52 52 53 53 52 52 51 51 51 51 51 52 52 52 52 53 53 53 52 52
42 42 42 43 43 44 44 44 44 44 44 44 45 45 46 47 49 49 50 50 50 50 51 52 53 53 53 52 52 51 50 50 50 50 51 51 52 52 52 52 52 52 51
43 43 43 43 43 43 44 45 45 45 45 45 46 46 47 48 49 50 50 50 50 50 51 52 53 53 53 53 52 51 50 50 50 50 51 52 52 52 52 52 52 53 52
41 42 43 43 44 44 44 45 45 46 47 47 47 48 48 48 49 50 50 50 50 50 51 52 53 53 54 54 53 52 52 52 52 52 52 52 53 53 53 53 54 53 53
41 42 42 43 44 45 45 45 46 47 47 47 48 48 49 49 49 49 49 49 50 50 51 52 52 52 53 54 54 54 54 54 54 54 54 53 54 53 53 54 54 53 53
41 42 42 43 43 44 44 45 46 47 47 48 48 48 48 48 48 47 48 48 49 50 50 50 51 51 52 53 53 54 54 55 56 55 55 54 53 53 53 53 53 53 53
41 41 41 42 42 42 43 44 45 46 46 47 47 47 47 47 47 47 47 48 48 49 49 49 49 50 51 52 54 54 55 55 56 56 55 55 54 53 53 52 52 52 53
39 40 40 41 41 42 42 43 44 44 44 44 45 46 46 47 47 47 47 48 48 48 48 48 49 49 50 51 52 53 54 54 55 55 55 55 55 54 53 52 52 52 52
40 39 39 40 40 41 41 42 42 42 43 44 44 44 44 45 45 45 46 46 46 47 47 47 48 48 49 50 51 51 52 53 53 53 54 54 54 53 52 51 51 50 50
40 39 39 39 40 40 41 41 41 42 42 43 43 43 42 42 43 43 44 44 45 45 46 46 47 47 48 49 49 50 50 51 51 51 51 50 50 50 50 50 49 49 49
39 39 39 39 39 39 40 40 41 41 41 42 42 42 42 41 41 41 42 42 43 43 43 44 45 46 46 47 47 47 47 47 48 48 48 48 47 47 48 48 48 48 47
38 38 39 39 39 39 39 39 39 39 39 40 40 40 40 40 40 41 41 42 42 42 42 42 42 42 43 43 44 44 44 45 45 45 45 46 45 45 45 46 46 46 46
37 37 37 37 38 38 38 38 38 38 37 37 38 38 38 38 39 39 40 41 41 40 40 40 40 40 40 41 41 42 42 43 43 43 43 43 44 44 44 44 44 44 44
35 35 36 36 36 36 36 36 36 35 35 35 36 36 36 37 37 38 38 39 38 38 38 38 38 38 38 38 38 39 40 40 41 41 41 41 42 42 42 42 42 43 43
33 34 34 34 33 33 33 33 33 33 33 34 34 35 35 36 36 36 36 36 36 35 35 35 35 36 36 36 37 37 37 38 38 39 39 40 40 40 41 41 41 41 42
32 32 32 32 32 33 33 32 32 32 32 32 33 34 34 35 35 35 35 35 34 34 34 34 34 34 35 35 35 35 36 36 36 37 37 37 38 39 39 39 39 39 40
30 30 31 31 31 31 31 31 31 32 32 32 33 33 33 33 33 34 34 33 33 33 33 33 33 34 34 34 34 34 34 34 34 35 35 35 35 36 36 36 37 37 37
30 31 30 30 30 30 29 30 30 31 31 32 32 32 32 32 32 32 32 31 31 31 32 32 32 32 32 32 32 32 32 32 32 32 32 32 32 33 33 34 34 34 34
30 30 30 29 29 29 29 29 29 30 30 30 30 31 30 30 30 30 30 30 30 30 30 30 30 30 30 30 30 30 30 30 30 30 30 30 30 30 31 31 32 32 32

GEFSGL_500_meanwind_384.txt.gz
Wind_Speed
44 44 45 46 47 48 48 49 48 48 48 49 49 51 51 51 51 51 51 51 51 51 51 51 52 52 52 53 52 52 52 52 53 54 55 55 54 54 53 52 51 51 51
44 45 45 45 46 47 48 48 49 49 48 49 49 50 50 50 50 51 51 51 51 50 50 50 49 50 51 51 51 52 52 52 52 52 53 54 54 54 53 52 52 52 51
44 44 45 45 46 46 47 47 48 49 49 48 49 49 50 50 49 49 49 50 50 50 51 50 49 49 50 51 51 52 53 53 53 53 52 54 54 53 53 53 53 52 52
43 43 44 44 45 45 46 47 47 48 48 48 48 48 48 48 48 49 49 49 50 51 51 51 50 50 50 50 51 52 52 52 53 53 52 52 52 53 52 53 53 53 52
42 43 43 44 44 45 45 47 47 47 48 48 48 47 48 48 48 48 48 49 50 51 52 52 52 51 50 51 51 51 51 52 52 52 51 52 52 52 53 53 53 52 52
42 42 43 44 45 46 45 46 47 48 48 48 48 47 48 49 48 47 47 47 48 49 50 51 52 52 51 52 51 51 51 51 51 51 51 52 52 53 54 53 53 52 52
43 43 44 45 45 45 45 46 47 47 47 48 49 49 49 49 48 47 47 48 47 48 49 50 50 51 52 52 51 51 51 51 51 51 51 51 52 53 53 53 52 52 51
43 44 44 45 45 45 46 46 47 47 48 48 48 49 49 49 49 49 49 48 48 48 48 49 49 50 52 52 52 53 52 52 51 51 50 51 51 50 51 51 51 51 51
42 43 44 44 44 45 45 46 47 47 47 47 48 48 47 47 47 48 49 49 49 48 48 49 49 49 50 52 53 53 52 52 52 52 52 51 51 50 50 50 50 51 51
43 43 44 45 44 44 44 45 45 46 46 46 47 47 48 48 48 49 49 50 50 50 50 50 50 50 50 51 51 52 52 52 52 52 52 52 52 52 52 51 51 51 51
43 44 44 44 44 45 44 44 45 45 46 46 47 47 47 48 49 49 49 50 50 50 50 50 50 51 51 51 51 52 52 52 52 52 52 52 52 53 53 53 53 53 52
42 42 43 44 44 44 45 45 45 45 46 47 47 47 47 48 48 49 49 50 50 49 49 49 50 50 50 51 51 52 52 52 52 52 52 51 52 53 54 54 53 53 53
41 42 42 42 43 44 44 44 45 45 45 46 47 47 47 47 48 49 49 48 48 48 48 48 49 49 50 50 50 51 51 52 52 53 53 52 53 53 54 55 55 54 54
41 41 41 42 43 43 43 43 44 45 45 45 46 46 46 46 47 47 47 47 46 47 47 47 47 48 48 48 48 49 50 51 52 52 52 53 54 54 55 55 56 56 55
41 41 41 42 42 42 43 43 43 44 44 45 45 45 45 45 45 45 45 44 44 44 45 45 46 46 47 47 47 48 49 50 50 50 51 52 53 54 55 56 56 57 56
41 41 41 41 41 41 41 42 42 43 44 44 45 45 45 44 44 44 44 43 43 44 44 44 45 45 46 46 47 47 48 49 49 50 50 51 52 53 54 54 55 56 56
40 40 40 39 39 39 40 40 41 41 42 42 43 43 43 43 42 42 42 42 42 43 43 43 43 44 44 45 46 47 47 48 49 50 50 51 52 52 52 52 53 53 54
39 39 39 39 39 39 39 39 39 40 40 40 40 41 41 41 41 41 41 41 41 41 42 42 43 43 43 44 44 45 46 47 48 49 49 49 49 50 50 50 50 51 51
38 38 38 38 38 39 39 39 39 39 39 38 38 38 38 38 39 40 40 40 40 41 42 42 43 43 42 43 43 43 44 44 45 46 46 47 47 47 47 47 48 48 48
38 38 38 37 37 38 38 38 37 37 37 36 36 36 37 37 38 38 39 39 39 40 41 41 41 41 41 41 41 42 42 43 43 43 44 44 45 45 45 45 45 45 45
38 37 37 36 36 36 35 35 35 34 35 35 36 36 36 37 37 38 38 39 39 40 40 40 40 40 40 40 40 40 40 40 40 40 40 40 40 41 42 42 42 43 43
37 36 36 35 35 34 33 33 32 33 34 34 35 36 36 37 37 37 37 38 38 39 39 39 38 38 38 38 38 37 37 37 37 37 36 36 37 37 37 38 39 39 40
36 36 35 35 34 33 32 32 31 32 32 33 34 34 35 36 36 36 36 36 36 37 37 37 37 37 36 36 36 35 35 34 34 34 34 34 34 34 35 35 36 36 37
34 34 33 33 32 32 31 31 31 31 31 32 32 32 33 33 34 34 34 34 34 34 34 34 34 35 34 34 34 33 33 32 32 32 32 32 32 32 32 33 33 33 34
32 31 31 30 30 30 30 30 30 30 30 30 30 30 30 30 31 31 31 32 32 32 32 32 32 31 31 31 31 31 30 30 29 29 30 30 30 30 30 30 30 31 31
30 29 29 29 29 29 30 30 29 29 29 29 29 29 28 29 29 29 29 29 29 29 29 28 29 29 28 29 29 29 28 28 28 28 28 28 29 29 29 29 29 29 29